HBZQK LSZB-LFMD

Flight info

Callsign HBZQK
Flight time 1h 6m
Altitude 13000
Route LSZB LFMD VFR
Aircraft A139/L-G/S

Departure

Time 2026-04-26 20:36
Airport Bern Airport (LSZB)

Arrival

Time 2026-04-26 21:43
Airport Cannes Mandelieu Airport (LFMD)
Time Latitude Longitude Altitude Speed Heading
2026-04-26 20:36 46.69939 7.41221 7535 ft 150 kts 191°
2026-04-26 20:36 46.68929 7.40813 7705 ft 151 kts 191°
2026-04-26 20:37 46.67913 7.40402 7872 ft 151 kts 191°
2026-04-26 20:37 46.66900 7.39994 8033 ft 151 kts 191°
2026-04-26 20:37 46.65879 7.39582 8187 ft 152 kts 191°
2026-04-26 20:37 46.64827 7.39158 8243 ft 157 kts 191°
2026-04-26 20:38 46.63810 7.38748 8310 ft 159 kts 191°
2026-04-26 20:38 46.62741 7.38317 8392 ft 159 kts 191°
2026-04-26 20:38 46.61672 7.37887 8474 ft 159 kts 191°
2026-04-26 20:38 46.60686 7.37489 8547 ft 159 kts 191°
2026-04-26 20:39 46.59602 7.37054 8497 ft 167 kts 191°
2026-04-26 20:39 46.58467 7.36597 8416 ft 170 kts 190°
2026-04-26 20:39 46.57352 7.36148 8575 ft 159 kts 191°
2026-04-26 20:39 46.56309 7.35728 8808 ft 152 kts 191°
2026-04-26 20:40 46.55277 7.35312 8931 ft 154 kts 191°
2026-04-26 20:40 46.54256 7.34901 9043 ft 155 kts 191°
2026-04-26 20:40 46.53207 7.34479 9160 ft 155 kts 191°
2026-04-26 20:40 46.52164 7.34060 9275 ft 155 kts 191°
2026-04-26 20:41 46.51114 7.33639 9387 ft 156 kts 191°
2026-04-26 20:41 46.50074 7.33222 9494 ft 156 kts 191°
2026-04-26 20:41 46.49031 7.32803 9598 ft 156 kts 191°
2026-04-26 20:41 46.47976 7.32380 9700 ft 156 kts 191°
2026-04-26 20:42 46.46920 7.31957 9799 ft 157 kts 191°
2026-04-26 20:42 46.45870 7.31536 9894 ft 157 kts 191°
2026-04-26 20:42 46.44809 7.31114 9987 ft 157 kts 191°
2026-04-26 20:42 46.43753 7.30694 10076 ft 157 kts 191°
2026-04-26 20:43 46.42699 7.30278 10163 ft 158 kts 191°
2026-04-26 20:43 46.41630 7.29855 10247 ft 158 kts 191°
2026-04-26 20:43 46.40578 7.29437 10328 ft 158 kts 191°
2026-04-26 20:43 46.39496 7.29007 10409 ft 158 kts 191°
2026-04-26 20:44 46.38433 7.28584 10485 ft 158 kts 191°
2026-04-26 20:44 46.37369 7.28160 10559 ft 159 kts 191°
2026-04-26 20:44 46.36301 7.27734 10632 ft 159 kts 191°
2026-04-26 20:44 46.35690 7.27490 10672 ft 159 kts 191°
2026-04-26 20:45 46.34638 7.27071 10739 ft 159 kts 191°
2026-04-26 20:45 46.33546 7.26635 10806 ft 159 kts 190°
2026-04-26 20:45 46.32481 7.26211 10870 ft 159 kts 190°
2026-04-26 20:45 46.31405 7.25783 10933 ft 160 kts 190°
2026-04-26 20:46 46.30812 7.25548 10966 ft 160 kts 191°
2026-04-26 20:46 46.29732 7.25118 11027 ft 160 kts 191°
2026-04-26 20:46 46.28662 7.24692 11084 ft 160 kts 191°
2026-04-26 20:46 46.27592 7.24266 11140 ft 160 kts 191°
2026-04-26 20:47 46.26953 7.24012 11172 ft 160 kts 191°
2026-04-26 20:47 46.26228 7.23724 11208 ft 160 kts 191°
2026-04-26 20:47 46.24785 7.23150 11278 ft 160 kts 191°
2026-04-26 20:47 46.23714 7.22725 11328 ft 161 kts 191°
2026-04-26 20:48 46.22625 7.22292 11377 ft 161 kts 190°
2026-04-26 20:48 46.21550 7.21866 11431 ft 160 kts 190°
2026-04-26 20:48 46.20486 7.21447 11570 ft 156 kts 191°
2026-04-26 20:48 46.19435 7.21028 11689 ft 155 kts 192°
2026-04-26 20:49 46.18424 7.20622 11784 ft 155 kts 192°
2026-04-26 20:49 46.17381 7.20206 11876 ft 156 kts 191°
2026-04-26 20:49 46.16333 7.19790 11968 ft 156 kts 191°
2026-04-26 20:49 46.15288 7.19376 12057 ft 156 kts 191°
2026-04-26 20:50 46.14241 7.18962 12145 ft 156 kts 191°
2026-04-26 20:50 46.13188 7.18544 12229 ft 156 kts 191°
2026-04-26 20:50 46.12141 7.18129 12308 ft 157 kts 191°
2026-04-26 20:50 46.11396 7.17834 12365 ft 157 kts 191°
2026-04-26 20:51 46.10340 7.17418 12442 ft 157 kts 191°
2026-04-26 20:51 46.09271 7.16995 12518 ft 157 kts 191°
2026-04-26 20:51 46.08218 7.16580 12590 ft 157 kts 191°
2026-04-26 20:51 46.07167 7.16165 12660 ft 158 kts 191°
2026-04-26 20:52 46.06105 7.15746 12728 ft 158 kts 191°
2026-04-26 20:52 46.05049 7.15329 12793 ft 158 kts 191°
2026-04-26 20:52 46.03978 7.14907 12858 ft 158 kts 191°
2026-04-26 20:52 46.02913 7.14488 12920 ft 158 kts 191°
2026-04-26 20:53 46.01847 7.14068 12980 ft 158 kts 191°
2026-04-26 20:53 46.00793 7.13653 13039 ft 159 kts 191°
2026-04-26 20:53 45.99723 7.13229 13040 ft 162 kts 191°
2026-04-26 20:53 45.98583 7.12909 13032 ft 169 kts 181°
2026-04-26 20:54 45.97393 7.12796 13012 ft 177 kts 180°
2026-04-26 20:54 45.96143 7.12697 13043 ft 182 kts 181°
2026-04-26 20:54 45.94870 7.12592 13105 ft 183 kts 180°
2026-04-26 20:54 45.93590 7.12494 13126 ft 183 kts 180°
2026-04-26 20:55 45.92316 7.12396 13117 ft 183 kts 179°
2026-04-26 20:55 45.91040 7.12303 13104 ft 183 kts 178°
2026-04-26 20:55 45.89806 7.12215 13098 ft 183 kts 179°
2026-04-26 20:55 45.88506 7.12122 13096 ft 183 kts 179°
2026-04-26 20:56 45.87244 7.12031 13095 ft 183 kts 179°
2026-04-26 20:56 45.85961 7.11939 13095 ft 183 kts 179°
2026-04-26 20:56 45.84682 7.11847 13096 ft 183 kts 179°
2026-04-26 20:56 45.83420 7.11757 13096 ft 183 kts 179°
2026-04-26 20:57 45.82137 7.11665 13097 ft 183 kts 179°
2026-04-26 20:57 45.80867 7.11574 13097 ft 183 kts 179°
2026-04-26 20:57 45.79603 7.11484 13098 ft 183 kts 179°
2026-04-26 20:57 45.78323 7.11392 13098 ft 183 kts 179°
2026-04-26 20:58 45.77052 7.11302 13098 ft 183 kts 179°
2026-04-26 20:58 45.75784 7.11211 13098 ft 183 kts 179°
2026-04-26 20:58 45.74503 7.11120 13097 ft 183 kts 179°
2026-04-26 20:58 45.73223 7.11029 13098 ft 183 kts 179°
2026-04-26 20:59 45.71959 7.10938 13098 ft 183 kts 179°
2026-04-26 20:59 45.70678 7.10847 13098 ft 183 kts 179°
2026-04-26 20:59 45.69408 7.10757 13098 ft 183 kts 179°
2026-04-26 20:59 45.68138 7.10667 13098 ft 183 kts 179°
2026-04-26 21:00 45.66858 7.10576 13097 ft 183 kts 179°
2026-04-26 21:00 45.65593 7.10486 13098 ft 183 kts 179°
2026-04-26 21:00 45.64312 7.10395 13098 ft 183 kts 179°
2026-04-26 21:00 45.63035 7.10304 13097 ft 183 kts 179°
2026-04-26 21:01 45.61771 7.10214 13097 ft 183 kts 179°
2026-04-26 21:01 45.60502 7.10124 13097 ft 183 kts 179°
2026-04-26 21:01 45.59217 7.10033 13095 ft 183 kts 179°
2026-04-26 21:01 45.57934 7.09945 13037 ft 188 kts 179°
2026-04-26 21:02 45.56612 7.09853 13065 ft 189 kts 179°
2026-04-26 21:02 45.55302 7.09766 13095 ft 189 kts 179°
2026-04-26 21:02 45.53978 7.09681 13108 ft 189 kts 179°
2026-04-26 21:02 45.52670 7.09597 13109 ft 189 kts 179°
2026-04-26 21:03 45.51346 7.09512 13105 ft 189 kts 179°
2026-04-26 21:03 45.50039 7.09429 13101 ft 189 kts 179°
2026-04-26 21:03 45.48718 7.09344 13098 ft 189 kts 179°
2026-04-26 21:03 45.47410 7.09260 13096 ft 189 kts 179°
2026-04-26 21:04 45.46088 7.09175 13096 ft 189 kts 179°
2026-04-26 21:04 45.44771 7.09091 13096 ft 189 kts 179°
2026-04-26 21:04 45.43464 7.09008 13096 ft 189 kts 179°
2026-04-26 21:04 45.42142 7.08923 13097 ft 189 kts 179°
2026-04-26 21:05 45.40824 7.08839 13097 ft 189 kts 179°
2026-04-26 21:05 45.39515 7.08755 13097 ft 189 kts 179°
2026-04-26 21:05 45.38189 7.08671 13097 ft 189 kts 179°
2026-04-26 21:05 45.36872 7.08587 13097 ft 189 kts 179°
2026-04-26 21:06 45.35566 7.08504 13097 ft 189 kts 179°
2026-04-26 21:06 45.34245 7.08419 13097 ft 189 kts 179°
2026-04-26 21:06 45.32923 7.08335 13097 ft 189 kts 179°
2026-04-26 21:06 45.31612 7.08251 13097 ft 189 kts 179°
2026-04-26 21:07 45.30293 7.08168 13097 ft 189 kts 179°
2026-04-26 21:07 45.28991 7.08085 13097 ft 189 kts 179°
2026-04-26 21:07 45.27672 7.08001 13097 ft 189 kts 179°
2026-04-26 21:07 45.26344 7.07915 13095 ft 189 kts 178°
2026-04-26 21:08 45.25038 7.07832 13095 ft 189 kts 178°
2026-04-26 21:08 45.23712 7.07749 13096 ft 189 kts 178°
2026-04-26 21:08 45.22403 7.07666 13097 ft 189 kts 178°
2026-04-26 21:08 45.21091 7.07583 13097 ft 189 kts 178°
2026-04-26 21:09 45.19778 7.07500 13098 ft 189 kts 178°
2026-04-26 21:09 45.18453 7.07416 13098 ft 189 kts 178°
2026-04-26 21:09 45.17145 7.07333 13097 ft 189 kts 178°
2026-04-26 21:09 45.15817 7.07249 13097 ft 189 kts 178°
2026-04-26 21:10 45.14498 7.07165 13097 ft 189 kts 178°
2026-04-26 21:10 45.13180 7.07082 13097 ft 189 kts 178°
2026-04-26 21:10 45.11875 7.06999 13097 ft 189 kts 178°
2026-04-26 21:10 45.10544 7.06915 13097 ft 189 kts 178°
2026-04-26 21:11 45.09234 7.06832 13097 ft 189 kts 178°
2026-04-26 21:11 45.07925 7.06750 13097 ft 189 kts 178°
2026-04-26 21:11 45.06598 7.06666 13097 ft 189 kts 178°
2026-04-26 21:11 45.05293 7.06584 13097 ft 189 kts 178°
2026-04-26 21:12 45.03964 7.06500 13097 ft 189 kts 178°
2026-04-26 21:12 45.02654 7.06417 13097 ft 189 kts 178°
2026-04-26 21:12 45.01337 7.06334 13097 ft 189 kts 178°
2026-04-26 21:12 45.00015 7.06251 13097 ft 189 kts 178°
2026-04-26 21:13 44.98707 7.06169 13097 ft 189 kts 178°
2026-04-26 21:13 44.97384 7.06086 13097 ft 189 kts 178°
2026-04-26 21:13 44.96074 7.06003 13098 ft 189 kts 178°
2026-04-26 21:13 44.94753 7.05920 13097 ft 189 kts 178°
2026-04-26 21:14 44.93471 7.05840 13097 ft 189 kts 178°
2026-04-26 21:14 44.92165 7.05757 13097 ft 189 kts 178°
2026-04-26 21:14 44.90836 7.05674 13097 ft 189 kts 178°
2026-04-26 21:14 44.89529 7.05592 13097 ft 189 kts 178°
2026-04-26 21:15 44.88182 7.05508 13097 ft 189 kts 178°
2026-04-26 21:15 44.86851 7.05424 13097 ft 189 kts 178°
2026-04-26 21:15 44.85535 7.05342 13097 ft 189 kts 178°
2026-04-26 21:15 44.84221 7.05260 13097 ft 189 kts 178°
2026-04-26 21:16 44.82903 7.05177 13097 ft 189 kts 178°
2026-04-26 21:16 44.81572 7.05094 13098 ft 189 kts 178°
2026-04-26 21:16 44.80257 7.05013 13050 ft 192 kts 179°
2026-04-26 21:16 44.78899 7.04930 13045 ft 195 kts 179°
2026-04-26 21:17 44.77551 7.04843 13083 ft 195 kts 179°
2026-04-26 21:17 44.76181 7.04756 13104 ft 195 kts 179°
2026-04-26 21:17 44.74837 7.04673 13110 ft 195 kts 179°
2026-04-26 21:17 44.73471 7.04588 13108 ft 195 kts 179°
2026-04-26 21:18 44.72110 7.04503 13104 ft 195 kts 179°
2026-04-26 21:18 44.70758 7.04419 13100 ft 195 kts 179°
2026-04-26 21:18 44.69435 7.04336 13098 ft 195 kts 179°
2026-04-26 21:18 44.68079 7.04252 13097 ft 195 kts 179°
2026-04-26 21:19 44.66707 7.04167 13096 ft 195 kts 179°
2026-04-26 21:19 44.65355 7.04082 13097 ft 195 kts 179°
2026-04-26 21:19 44.63993 7.03998 13097 ft 195 kts 179°
2026-04-26 21:19 44.62634 7.03913 13098 ft 195 kts 179°
2026-04-26 21:20 44.61277 7.03829 13098 ft 195 kts 179°
2026-04-26 21:20 44.59916 7.03744 13098 ft 195 kts 179°
2026-04-26 21:20 44.58561 7.03660 13098 ft 195 kts 179°
2026-04-26 21:20 44.57200 7.03576 13098 ft 195 kts 179°
2026-04-26 21:21 44.55835 7.03491 13098 ft 195 kts 179°
2026-04-26 21:21 44.54488 7.03408 13097 ft 195 kts 179°
2026-04-26 21:21 44.53133 7.03320 13069 ft 196 kts 183°
2026-04-26 21:21 44.51759 7.03239 13114 ft 194 kts 182°
2026-04-26 21:22 44.50414 7.03149 13114 ft 194 kts 181°
2026-04-26 21:22 44.49050 7.03066 13104 ft 194 kts 181°
2026-04-26 21:22 44.47699 7.02984 13098 ft 194 kts 181°
2026-04-26 21:23 44.44994 7.02819 13094 ft 194 kts 181°
2026-04-26 21:23 44.43644 7.02736 13095 ft 194 kts 181°
2026-04-26 21:23 44.42288 7.02653 13096 ft 194 kts 181°
2026-04-26 21:23 44.40925 7.02569 13097 ft 194 kts 181°
2026-04-26 21:24 44.39570 7.02485 13097 ft 194 kts 181°
2026-04-26 21:24 44.38225 7.02402 13097 ft 194 kts 181°
2026-04-26 21:24 44.36863 7.02319 13098 ft 194 kts 181°
2026-04-26 21:24 44.35516 7.02236 13098 ft 194 kts 181°
2026-04-26 21:25 44.34151 7.02152 13098 ft 194 kts 181°
2026-04-26 21:25 44.32805 7.02069 13098 ft 194 kts 181°
2026-04-26 21:25 44.31445 7.01985 13097 ft 194 kts 181°
2026-04-26 21:25 44.30108 7.01901 13035 ft 194 kts 180°
2026-04-26 21:26 44.28750 7.01823 12874 ft 194 kts 180°
2026-04-26 21:26 44.27410 7.01748 12696 ft 193 kts 180°
2026-04-26 21:26 44.26058 7.01671 12516 ft 193 kts 180°
2026-04-26 21:26 44.24724 7.01593 12336 ft 192 kts 180°
2026-04-26 21:27 44.23391 7.01513 12154 ft 192 kts 180°
2026-04-26 21:27 44.22065 7.01434 11974 ft 191 kts 179°
2026-04-26 21:27 44.20730 7.01354 11792 ft 191 kts 179°
2026-04-26 21:27 44.19396 7.01273 11609 ft 190 kts 179°
2026-04-26 21:28 44.18076 7.01194 11432 ft 190 kts 180°
2026-04-26 21:28 44.16749 7.01110 11375 ft 190 kts 181°
2026-04-26 21:28 44.15443 7.01021 11392 ft 190 kts 181°
2026-04-26 21:28 44.14114 7.00931 11333 ft 189 kts 180°
2026-04-26 21:29 44.12813 7.00853 11172 ft 189 kts 179°
2026-04-26 21:29 44.11499 7.00778 10993 ft 188 kts 179°
2026-04-26 21:29 44.10175 7.00701 10810 ft 188 kts 179°
2026-04-26 21:29 44.08877 7.00625 10630 ft 187 kts 179°
2026-04-26 21:30 44.07570 7.00548 10465 ft 186 kts 179°
2026-04-26 21:30 44.06311 7.00471 10399 ft 177 kts 178°
2026-04-26 21:30 44.05086 7.00403 10216 ft 175 kts 178°
2026-04-26 21:30 44.03875 7.00335 10021 ft 174 kts 178°
2026-04-26 21:31 44.02667 7.00260 9836 ft 174 kts 178°
2026-04-26 21:31 44.01450 7.00181 9651 ft 174 kts 179°
2026-04-26 21:31 44.00269 7.00104 9472 ft 173 kts 178°
2026-04-26 21:31 43.99038 7.00028 9285 ft 173 kts 178°
2026-04-26 21:32 43.97842 6.99955 9102 ft 172 kts 178°
2026-04-26 21:32 43.96657 6.99883 8921 ft 172 kts 178°
2026-04-26 21:32 43.95463 6.99810 8738 ft 171 kts 178°
2026-04-26 21:32 43.94272 6.99738 8554 ft 171 kts 178°
2026-04-26 21:33 43.93083 6.99667 8371 ft 170 kts 178°
2026-04-26 21:33 43.91898 6.99595 8188 ft 170 kts 178°
2026-04-26 21:33 43.90710 6.99523 8003 ft 169 kts 178°
2026-04-26 21:33 43.89511 6.99451 7816 ft 169 kts 178°
2026-04-26 21:34 43.88337 6.99381 7633 ft 168 kts 178°
2026-04-26 21:34 43.87168 6.99310 7450 ft 168 kts 178°
2026-04-26 21:34 43.86001 6.99238 7266 ft 167 kts 178°
2026-04-26 21:34 43.84831 6.99168 7081 ft 167 kts 178°
2026-04-26 21:35 43.83674 6.99098 6899 ft 167 kts 178°
2026-04-26 21:35 43.82511 6.99028 6714 ft 166 kts 178°
2026-04-26 21:35 43.81345 6.98958 6528 ft 166 kts 178°
2026-04-26 21:35 43.80203 6.98889 6346 ft 165 kts 178°
2026-04-26 21:36 43.79054 6.98820 6162 ft 165 kts 178°
2026-04-26 21:36 43.78291 6.98774 6040 ft 165 kts 178°
2026-04-26 21:36 43.76775 6.98787 5796 ft 164 kts 172°
2026-04-26 21:36 43.75622 6.98893 5608 ft 164 kts 171°
2026-04-26 21:37 43.74488 6.99002 5426 ft 163 kts 171°
2026-04-26 21:37 43.73354 6.99092 5220 ft 164 kts 176°
2026-04-26 21:37 43.72226 6.98949 5067 ft 162 kts 181°
2026-04-26 21:37 43.71127 6.98782 4975 ft 154 kts 181°
2026-04-26 21:38 43.70076 6.98625 4795 ft 151 kts 180°
2026-04-26 21:38 43.69028 6.98468 4600 ft 151 kts 181°
2026-04-26 21:38 43.67992 6.98311 4412 ft 150 kts 181°
2026-04-26 21:38 43.66956 6.98064 4227 ft 150 kts 182°
2026-04-26 21:39 43.65924 6.97820 4020 ft 151 kts 189°
2026-04-26 21:39 43.64963 6.97268 3851 ft 150 kts 204°
2026-04-26 21:39 43.64073 6.96542 3684 ft 148 kts 205°
2026-04-26 21:39 43.63186 6.95809 3465 ft 148 kts 210°
2026-04-26 21:40 43.62285 6.95096 2922 ft 151 kts 210°
2026-04-26 21:40 43.61399 6.94424 2578 ft 138 kts 204°
2026-04-26 21:40 43.60538 6.94168 2332 ft 120 kts 173°
2026-04-26 21:40 43.59726 6.94235 1986 ft 116 kts 173°
2026-04-26 21:41 43.58966 6.94363 1664 ft 104 kts 173°
2026-04-26 21:41 43.58509 6.94455 1497 ft 91 kts 173°
2026-04-26 21:41 43.57946 6.94574 1274 ft 79 kts 173°
2026-04-26 21:41 43.57381 6.94693 967 ft 88 kts 173°
2026-04-26 21:42 43.56754 6.94803 655 ft 91 kts 173°
2026-04-26 21:42 43.56130 6.94884 406 ft 88 kts 174°
2026-04-26 21:42 43.55547 6.94974 225 ft 78 kts 173°
2026-04-26 21:42 43.55073 6.95046 111 ft 59 kts 174°
2026-04-26 21:43 43.54704 6.95110 60 ft 53 kts 171°
2026-04-26 21:43 43.54381 6.95229 65 ft 38 kts 142°
2026-04-26 21:43 43.54389 6.95411 34 ft 12 kts 56°
2026-04-26 21:43 43.54462 6.95516 41 ft 17 kts 52°
2026-04-26 21:44 43.54556 6.95698 74 ft 27 kts 50°
2026-04-26 21:44 43.54611 6.95813 36 ft 7 kts 51°
2026-04-26 21:44 43.54644 6.95894 33 ft 11 kts 43°
2026-04-26 21:44 43.54695 6.95973 34 ft 14 kts 43°
2026-04-26 21:45 43.54752 6.96082 27 ft 5 kts 91°
2026-04-26 21:45 43.54752 6.96096 19 ft 1 kts 140°
2026-04-26 21:45 43.54750 6.96097 19 ft 0 kts 141°